Location: Newark
(40.3500°N, 15.2333°E)
Time: 22:48:28
(UTC+00:00)

Transit 2A Rocket - Visible Passes

Search period start: 18 January 2020 00:00
Search period end: 28 January 2020 00:00
Orbit: 593 x 910 km, 66.7° (Epoch: 18 January)

Date Brightness Start Highest point End Pass type
(mag) Time Alt. Az. Time Alt. Az. Time Alt. Az.
18 Jan 4.8 05:41:22 10° SSW 05:45:42 75° ESE 05:50:00 10° NNE visible
19 Jan 6.1 04:59:15 10° S 05:03:16 37° ESE 05:07:15 10° NE visible
20 Jan 7.2 04:17:48 10° SSE 04:20:56 20° ESE 04:24:03 10° ENE visible
21 Jan 4.4 05:16:15 10° SW 05:20:34 70° WNW 05:24:53 10° NNE visible
22 Jan 5.0 04:33:49 10° SSW 04:38:04 59° ESE 04:42:19 10° NE visible
23 Jan 6.3 03:51:54 10° S 03:55:40 30° ESE 03:59:26 10° NE visible
23 Jan 5.5 05:34:33 10° WSW 05:38:10 26° NW 05:41:49 10° N visible
24 Jan 7.2 03:12:24 15° ESE 03:13:23 16° ESE 03:15:57 10° ENE visible
24 Jan 4.7 04:52:26 17° SW 04:55:29 45° NW 04:59:40 10° NNE visible
25 Jan 4.3 04:12:36 77° SW 04:12:55 88° NW 04:17:15 10° NNE visible
26 Jan 6.3 03:32:16 28° ENE 03:32:16 28° ENE 03:34:35 10° NE visible
26 Jan 5.9 05:12:14 17° WNW 05:13:13 18° NW 05:16:17 10° N visible
27 Jan 5.6 04:31:34 27° NNW 04:31:34 27° NNW 04:34:20 10° N visible
